Regional Weather Roundup
Issued by NWS

Home | Current Version | Previous Version | Text Only | Print | Product List | Glossary Off
Versions: 1 2 3 4 5 6 7 8 9 10 11 12 13 14 15 16 17 18 19 20 21 22 23 24 25 26 27

000
ASUS45 KCYS 261310
RWRWY

WYOMING REGIONAL WEATHER ROUNDUP
NATIONAL WEATHER SERVICE CHEYENNE WY
700 AM MDT MON SEP 26 2016

NOTE:  "FAIR" INDICATES FEW OR NO CLOUDS BELOW 12,000 FEET
WITH NO SIGNIFICANT WEATHER AND/OR OBSTRUCTIONS TO VISIBILITY.

WYZ001-261400-
YELLOWSTONE NATIONAL PARK

CITY           SKY/WX    TMP DP  RH WIND       PRES   REMARKS
LK YELLOWSTONE   N/A     28  28 100 NW3       30.56R
W YELLOWSTONE  NOT AVBL

$$
WYZ002>013-054>058-071-098>099-261400-
NORTHERN WYOMING

CITY           SKY/WX    TMP DP  RH WIND       PRES   REMARKS
JACKSON        CLEAR     34  34 100 CALM      30.52R
CODY           FAIR      41  38  89 S6        30.41S
GREYBULL       FAIR      41  40  96 CALM      30.38R
WORLAND        FAIR      40  39  97 S6        30.39R
SHERIDAN       CLOUDY    54  44  69 NW8       30.35R
BUFFALO        FAIR      53  38  56 NW10      30.38R
GILLETTE       FAIR      46  40  79 W12       30.34R
HULETT         FAIR      46  36  66 SW8       30.33R
NEWCASTLE      FAIR      37  32  81 CALM      30.36R

$$
WYZ014>020-022>026-101>103-261400-
CENTRAL WYOMING

CITY           SKY/WX    TMP DP  RH WIND       PRES   REMARKS
BIG PINEY      FAIR      37  33  85 NW6       30.50R WCI  32
PINEDALE       FAIR      32  32 100 CALM      30.50S
DUBOIS         FAIR      41  34  75 NW10      30.47R
LANDER         FAIR      41  37  86 W5        30.42R
RIVERTON       FAIR      41  41 100 NW8       30.43R
CASPER         FAIR      33  33 100 CALM      30.41R
DOUGLAS        FAIR      36  34  92 CALM      30.41R

$$
WYZ021-027>030-104>119-261400-
SOUTHERN WYOMING

CITY           SKY/WX    TMP DP  RH WIND       PRES   REMARKS
EVANSTON       FAIR      42  31  64 CALM      30.51R
FORT BRIDGER   FAIR      44  34  68 W8        30.52R
ROCK SPRINGS   FAIR      43  34  70 CALM      30.48S
DIXON          FAIR      35  32  88 E6        30.54R WCI  30
RAWLINS        FAIR      30  28  92 N3        30.48F
SARATOGA       FAIR      34  30  86 S10       30.51S WCI  26
LARAMIE        FAIR      32  28  85 SE8       30.48R WCI  25
CHEYENNE       FAIR      41  31  67 N3        30.44R
TORRINGTON     FAIR      37  35  92 N7        30.36R WCI  32
PINE BLUFFS    FAIR      34  32  93 MISG      30.41S

$$




USA.gov is the U.S. government's official web portal to all federal, state and local government web resources and services.